Retour au catalogue

CZ-3B DEB

ActifHEO
NORAD 42473·DEBRIS·🇨🇳 China

Lancé Dec 19, 2011 depuis Xichang Satellite Launch Center

Loading…

Prochains Passages (prochaines 24 heures)

TLE

FraisSource: Space-Track

Époque: Sep 14, 2026, 11:33 UTC

1 42473U 11077AN  26257.48139312 -.00000247  00000-0  00000-0 0  9993
2 42473  23.5498  46.5227 7203475 132.8936 315.9442  1.69257970 64609

Suivez CZ-3B DEB en temps réel avec AllMySat

Download on the App Store